Flag for Germany Weather past 2 weeks in Radolfzell am Bodensee, Baden-Württemberg, Germany

Now
84 °F

Passing clouds.


Feels Like: 84 °F
Forecast: 51 / 82 °F
Wind: 2 mph from Southeast

Location: Konstanz

Current Time: Aug 3, 2015 at 3:29:15 PM

Latest Report: Aug 3, 2015 at 3:00 PM


Visibility: 28 mi

Pressure: 29.98 "Hg

Humidity: 45%

Dew point: 60 °F

Location of Radolfzell am BodenseeLocation

Historic Weather in Radolfzell am Bodensee — Graph

°F

Radolfzell am Bodensee temperature yesterday

Maximum temperature yesterday: 80 °F (at 6:00 PM)
Minimum temperature yesterday: 62 °F (at 7:00 AM)
Average temperature yesterday: 71 °F

Past Weeks' High & Low Weather Summary

 TemperatureHumidityPressure
High95 °F (Jul 22, 5:00 PM)97% (Jul 30, 7:00 AM)30.11 "Hg (Jul 30, 7:00 AM)
Low51 °F (Jul 30, 5:00 AM)22% (Jul 22, 5:00 PM)29.66 "Hg (Jul 24, 7:00 PM)
Average69 °F63%29.93 "Hg
* Reported Jul 19 2:00 PM — Aug 3 2:00 PM, Radolfzell am Bodensee, Weather by CustomWeather, © 2015

Note: Actual official high and low records may vary slightly from our data, if they occured in-between our weather recording intervals... More about our weather records

Advertising

Radolfzell am Bodensee weather history for previous 24 hours

 ConditionsComfort  
Time TempWeatherWind HumidityBarometerVisibility
2:00 PM
Mon, Aug 3
81 °FPassing clouds.2 mph52%30.01 "Hg28 mi
1:00 PM78 °FPassing clouds.2 mph53%30.02 "Hg28 mi
12:00 PM76 °FPassing clouds.2 mph56%30.04 "Hg25 mi
11:00 AM74 °FSunny.1 mph57%30.06 "Hg25 mi
10:00 AM70 °FPassing clouds.2 mph62%30.06 "Hg22 mi
9:00 AM68 °FPassing clouds.1 mph68%30.07 "Hg19 mi
8:00 AM62 °FPassing clouds.1 mph80%30.08 "Hg17 mi
7:00 AM60 °FPassing clouds.1 mph87%30.07 "Hg14 mi
6:00 AM60 °FPassing clouds.2 mph88%30.06 "Hg16 mi
5:00 AM60 °FClear.1 mph85%30.05 "Hg18 mi
4:00 AM61 °FClear.1 mph83%30.05 "Hg22 mi
3:00 AM62 °FClear.1 mph78%30.05 "Hg25 mi
2:00 AM63 °FClear.1 mph77%30.05 "Hg25 mi
1:00 AM65 °FClear.1 mph69%30.05 "Hg34 mi
11:00 PM
Sun, Aug 2
70 °FClear.2 mph60%30.03 "Hg34 mi
10:00 PM71 °FClear.2 mph58%30.03 "Hg28 mi
9:00 PM74 °FPassing clouds.1 mph54%30.01 "Hg25 mi
8:00 PM78 °FPassing clouds.2 mph46%30.00 "Hg28 mi
7:00 PM80 °FPassing clouds.2 mph41%30.00 "Hg28 mi
6:00 PM80 °FPassing clouds.3 mph39%30.01 "Hg28 mi
5:00 PM79 °FPassing clouds.2 mph41%30.02 "Hg28 mi
4:00 PM79 °FPassing clouds.2 mph46%30.03 "Hg25 mi
3:00 PM77 °FPassing clouds.3 mph50%30.04 "Hg22 mi
Weather by CustomWeather, © 2015

See weather overviewHow to use our weather pages